Date,TemperatureHighF,TemperatureAvgF,TemperatureLowF,DewpointHighF,DewpointAvgF,DewpointLowF,HumidityHigh,HumidityAvg,HumidityLow,PressureMaxIn,PressureMinIn,WindSpeedMaxMPH,WindSpeedAvgMPH,GustSpeedMaxMPH,PrecipitationSumIn
2013-1-1,54,49,46,-100,-100,-100,0,0,100,30.29,30.21,13,-50,15,0.00
2013-1-2,58,52,46,-100,-100,-100,0,0,100,30.24,30.13,13,-88,16,0.00
2013-1-3,61,51,48,-100,-100,-100,0,0,100,30.27,30.15,12,-53,15,0.00
2013-1-4,61,52,47,-100,-100,-100,0,0,100,30.29,30.19,8,-110,9,0.00
2013-1-5,54,52,50,-100,-100,-100,0,0,100,30.24,30.03,23,9,30,0.00
2013-1-6,53,50,47,-100,-100,-100,0,0,100,30.20,30.04,23,6,27,0.00
2013-1-7,55,53,51,-100,-100,-100,0,0,100,30.27,30.17,27,20,32,0.00
2013-1-8,54,52,50,-100,-100,-100,0,0,100,30.25,30.14,21,12,26,0.00
2013-1-9,54,50,48,-100,-100,-100,0,0,100,30.16,30.03,32,7,39,0.00
2013-1-10,49,47,46,-100,-100,-100,0,0,100,30.23,30.10,34,22,42,0.00
2013-1-11,50,48,46,-100,-100,-100,0,0,100,30.28,30.14,29,18,36,0.00
2013-1-12,48,46,43,-100,-100,-100,0,0,100,30.26,30.16,10,-60,13,0.00
2013-1-13,50,45,41,-100,-100,-100,0,0,100,30.27,30.20,8,-95,10,0.00
2013-1-14,50,47,44,-100,-100,-100,0,0,100,30.41,30.29,11,-4,12,0.00
2013-1-15,53,48,45,-100,-100,-100,0,0,100,30.48,30.40,6,-269,10,0.00
2013-1-16,56,49,44,-100,-100,-100,0,0,100,30.44,30.27,12,-86,15,0.00
2013-1-17,63,54,48,-100,-100,-100,0,0,100,30.27,30.15,15,5,18,0.00
2013-1-18,69,58,53,-100,-100,-100,0,0,100,30.20,30.13,9,-201,11,0.00
2013-1-19,65,58,53,-100,-100,-100,0,0,100,30.22,30.15,9,-77,12,0.00
2013-1-20,68,58,51,-100,-100,-100,0,0,100,30.20,30.12,5,-102,6,0.00
2013-1-21,67,58,53,-100,-100,-100,0,0,100,30.16,30.07,8,-74,11,0.00
2013-1-22,65,58,54,-100,-100,-100,0,0,100,30.09,29.99,16,-23,21,0.00
2013-1-23,60,56,51,-100,-100,-100,0,0,100,30.09,29.94,17,-33,23,0.00
2013-1-24,57,54,52,-100,-100,-100,0,0,100,30.19,30.07,16,-122,17,0.00
2013-1-25,61,55,53,-100,-100,-100,0,0,100,30.20,30.06,20,-131,25,0.00
2013-1-26,53,51,49,-100,-100,-100,0,0,100,30.11,30.03,27,19,33,0.00
2013-1-27,51,49,48,-100,-100,-100,0,0,100,30.20,30.10,34,26,41,0.00
2013-1-28,52,50,48,-100,-100,-100,0,0,100,30.32,30.19,34,25,41,0.00
2013-1-29,51,50,49,-100,-100,-100,0,0,100,30.38,30.30,37,26,46,0.00
2013-1-30,57,51,48,-100,-100,-100,0,0,100,30.35,30.28,27,-82,32,0.00
2013-1-31,64,52,46,-100,-100,-100,0,0,100,30.29,30.19,11,-97,13,0.00